DW2798 Weather Reports


time (UTC)temp
C
wind
direction
speed
KPH
gust
KPH
rain 1hr
cm
rain 24hr
cm
rain mn
cm
humidity
%
barometer
mb
20260906093021 -17 0.0 0.0 0.00 0.00 0.00 1010.6
20260906091503 -17 0.0 0.0 0.00 0.00 0.00 1010.6
20260906090043 -17 0.0 0.0 0.00 0.00 0.00 1010.6
20260906084528 -17 0.0 0.0 0.00 0.00 0.00 1010.7
20260906083030 -17 0.0 0.0 0.00 0.00 0.00 1011.1
20260906081516 -17 0.0 0.0 0.00 0.00 0.00 1011.0
20260906080008 -17 0.0 0.0 0.00 0.00 0.00 1010.8
20260906074519 20 360 0.0 0.0 0.00 0.00 0.00 84 1010.2
20260906073004 21 360 0.0 0.0 0.00 0.00 0.00 82 1010.0
20260906071503 21 360 0.0 0.0 0.00 0.00 0.00 83 1010.2
20260906070003 20 360 0.0 0.0 0.00 0.00 0.00 83 1010.2
20260906064502 21 360 0.0 0.0 0.00 0.00 0.00 82 1007.9
20260906063002 20 360 0.0 0.0 0.00 0.00 0.00 84 1007.9
20260906061606 20 360 0.0 0.0 0.00 0.00 0.00 87 1008.1
20260906060057 19 360 0.0 0.0 0.00 0.00 0.00 88 1008.7
20260906054603 20 360 0.0 0.0 0.00 0.00 0.00 89 1008.7
20260906053110 20 360 0.0 0.0 0.00 0.00 0.00 89 1008.6
20260906051553 19 360 0.0 0.0 0.00 0.00 0.00 91 1009.1
20260906050053 19 360 0.0 0.0 0.00 0.00 0.00 91 1009.0
20260906044552 19 360 0.0 0.0 0.00 0.00 0.00 91 1008.8
20260906043053 20 360 0.0 0.0 0.00 0.00 0.00 90 1009.1
20260906041555 20 360 0.0 0.0 0.00 0.00 0.00 90 1009.3
20260906040050 20 360 0.0 0.0 0.00 0.00 0.00 88 1009.0
20260906034550 21 360 0.0 0.0 0.00 0.00 0.00 87 1009.2
20260906033049 20 360 0.0 0.0 0.00 0.00 0.00 89 1009.4
20260906031522 20 360 0.0 0.0 0.00 0.00 0.00 88 1009.4
20260906030022 20 360 0.0 0.0 0.00 0.00 0.00 87 1009.4
20260906024516 20 360 0.0 0.0 0.00 0.00 0.00 87 1009.4
20260906023018 20 360 0.0 0.0 0.00 0.00 0.00 88 1009.9
20260906021515 20 360 0.0 0.0 0.00 0.00 0.00 91 1009.7
20260906020014 20 360 0.0 0.0 0.00 0.00 0.00 90 1009.4
20260906014530 20 360 0.0 0.0 0.00 0.00 0.00 91 1009.8
20260906013021 20 360 0.0 0.0 0.00 0.00 0.00 91 1009.8
20260906011511 20 360 0.0 0.0 0.00 0.00 0.00 90 1009.7
20260906010033 20 360 0.0 0.0 0.00 0.00 0.00 90 1009.7
20260906004508 20 360 0.0 0.0 0.00 0.00 0.00 91 1010.0
20260906003008 20 360 0.0 0.0 0.00 0.00 0.00 91 1009.7
20260906001507 20 360 0.0 0.0 0.00 0.00 0.00 92 1009.9
20260906000007 20 360 0.0 0.0 0.00 0.00 0.00 92 1010.0
20260905234505 20 360 0.0 0.0 0.00 0.00 0.00 91 1010.2
20260905233004 20 360 0.0 0.0 0.00 0.00 0.00 90 1010.1
20260905231505 20 360 0.0 0.0 0.00 0.00 0.00 90 1009.9
20260905230004 20 360 0.0 0.0 0.00 0.00 0.00 88 1009.8
20260905224503 20 360 0.0 0.0 0.00 0.00 0.00 88 1009.8
20260905223002 20 360 0.0 0.0 0.00 0.00 0.00 89 1009.9
20260905221501 20 360 0.0 0.0 0.00 0.00 0.00 90 1010.0
20260905220100 20 360 0.0 0.0 0.00 0.00 0.00 91 1010.5
20260905214558 19 360 0.0 0.0 0.00 0.00 0.00 94 1010.4
20260905213059 18 360 0.0 0.0 0.00 0.00 0.00 93 1010.8
20260905211558 18 360 0.0 0.0 0.00 0.00 0.00 92 1011.0
20260905210059 18 360 0.0 0.0 0.00 0.00 0.00 92 1010.9
20260905204559 19 360 0.0 0.0 0.00 0.00 0.00 92 1011.3
20260905203100 19 360 0.0 0.0 0.00 0.00 0.00 90 1011.2
20260905201604 19 360 0.0 0.0 0.00 0.00 0.00 90 1011.6
20260905200057 18 360 0.0 0.0 0.00 0.00 0.00 95 1012.5
20260905194551 17 360 0.0 0.0 0.00 0.00 0.00 95 1012.7
20260905193050 17 360 0.0 0.0 0.00 0.00 0.00 96 1013.1
20260905191546 18 360 0.0 0.0 0.00 0.00 0.00 89 1013.0
20260905190042 25 360 1.6 0.0 0.00 0.00 0.00 71 1009.8
20260905183036 28 360 0.0 0.0 0.00 0.00 2.16 68 1008.4
20260905181526 29 360 0.0 0.0 0.00 0.00 2.16 68 1008.4
20260905180025 29 360 0.0 0.0 0.00 0.00 2.16 66 1008.6
20260905174518 28 360 0.0 0.0 0.00 0.00 2.16 70 1009.0
20260905173018 28 360 0.0 0.0 0.00 0.00 2.16 70 1009.2
20260905171519 28 360 0.0 0.0 0.00 0.00 2.16 70 1009.0
20260905170017 27 360 0.0 0.0 0.00 0.00 2.16 71 1009.5
20260905164517 27 360 0.0 0.0 0.00 0.00 2.16 73 1009.9
20260905163017 28 360 0.0 0.0 0.00 0.00 2.16 70 1009.6
20260905161511 28 360 0.0 0.0 0.00 0.00 2.16 66 1009.7
20260905160009 28 360 0.0 0.0 0.00 0.00 2.16 68 1010.0
20260905154506 27 360 0.0 0.0 0.00 0.00 2.16 71 1010.2
20260905153100 27 360 0.0 0.0 0.00 0.00 2.16 74 1010.0
20260905153000 27 360 0.0 0.0 0.00 0.00 2.16 73 1010.2
20260905151558 26 360 0.0 0.0 0.00 0.00 2.16 75 1010.5
20260905150059 26 360 0.0 0.0 0.00 0.00 2.16 75 1010.6
20260905144555 26 360 0.0 0.0 0.00 0.00 2.16 76 1010.5
20260905143051 26 360 0.0 0.0 0.00 0.00 2.16 77 1010.8
20260905141548 25 360 0.0 0.0 0.00 0.00 2.16 77 1010.9
20260905140049 25 360 0.0 0.0 0.00 0.00 2.16 78 1011.0
20260905134548 24 360 0.0 0.0 0.00 0.00 2.16 81 1011.2
20260905133039 24 360 0.0 0.0 0.00 0.00 2.16 81 1011.7
20260905131541 23 360 0.0 0.0 0.00 0.00 2.16 84 1011.8
20260905130042 22 360 0.0 0.0 0.00 0.00 1.45 88 1012.1
20260905124539 21 360 0.0 0.0 0.00 0.00 1.45 89 1012.0
20260905123036 21 360 0.0 0.0 0.00 0.00 1.45 89 1012.2
20260905121542 21 360 0.0 0.0 0.00 0.00 1.45 89 1012.0
20260905120034 20 360 0.0 0.0 0.00 0.00 1.45 89 1011.8
20260905114542 20 360 0.0 0.0 0.00 0.00 1.24 90 1011.7
20260905113028 -17 0.0 0.0 0.00 0.00 1.24 1011.6
20260905111531 -17 0.0 0.0 0.00 0.00 1.24 1011.4
20260905110022 -17 0.0 0.0 0.00 0.00 1.24 1011.3
20260905104515 -17 0.0 0.0 0.00 0.00 1.24 1011.1
20260905103012 -17 0.0 0.0 0.00 0.00 1.24 1011.1
20260905101505 -17 0.0 0.0 0.00 0.00 1.24 1010.9
20260905100110 -17 0.0 0.0 0.00 0.00 1.24 1010.9
20260905094555 -17 0.0 0.0 0.00 0.00 1.24 1010.9